TimeEST,TemperatureF,Dew PointF,Humidity,Sea Level PressureIn,VisibilityMPH,Wind Direction,Wind SpeedMPH,Gust SpeedMPH,PrecipitationIn,Events,Conditions,WindDirDegrees,DateUTC
12:54 AM,59.0,52.0,78,29.68,10.0,SW,9.2,-,N/A,,Clear,220,2012-12-11 05:54:00
1:54 AM,59.0,53.1,81,29.70,10.0,SW,9.2,-,N/A,,Clear,230,2012-12-11 06:54:00
2:54 AM,64.9,55.0,70,29.71,10.0,WSW,16.1,24.2,N/A,,Mostly Cloudy,250,2012-12-11 07:54:00
3:54 AM,66.0,54.0,65,29.70,10.0,West,16.1,24.2,N/A,,Scattered Clouds,270,2012-12-11 08:54:00
4:54 AM,57.9,50.0,75,29.74,10.0,NW,15.0,25.3,N/A,,Partly Cloudy,320,2012-12-11 09:54:00
5:54 AM,54.0,44.1,69,29.78,10.0,North,10.4,-,N/A,,Clear,350,2012-12-11 10:54:00
6:26 AM,53.1,43.0,69,29.81,10.0,North,11.5,-,N/A,,Mostly Cloudy,360,2012-12-11 11:26:00
6:54 AM,53.1,42.1,66,29.83,10.0,North,9.2,-,N/A,,Overcast,350,2012-12-11 11:54:00
7:51 AM,53.6,42.8,67,29.87,10.0,North,8.1,-,N/A,,Overcast,360,2012-12-11 12:51:00
7:54 AM,53.1,42.1,66,29.87,10.0,North,6.9,-,N/A,,Overcast,360,2012-12-11 12:54:00
8:14 AM,52.0,42.1,69,29.89,10.0,North,6.9,-,N/A,,Overcast,360,2012-12-11 13:14:00
8:29 AM,51.8,41.0,67,29.90,10.0,North,6.9,-,N/A,,Overcast,10,2012-12-11 13:29:00
8:54 AM,52.0,41.0,66,29.91,10.0,North,9.2,-,N/A,,Overcast,360,2012-12-11 13:54:00
9:54 AM,52.0,39.9,63,29.94,10.0,North,9.2,-,N/A,,Overcast,10,2012-12-11 14:54:00
10:54 AM,50.0,41.0,71,29.95,10.0,North,8.1,-,N/A,,Overcast,360,2012-12-11 15:54:00
11:54 AM,50.0,37.9,63,29.96,10.0,North,9.2,-,N/A,,Overcast,10,2012-12-11 16:54:00
12:54 PM,51.1,37.0,59,29.98,10.0,NNE,8.1,-,N/A,,Overcast,20,2012-12-11 17:54:00
1:04 PM,50.0,36.0,59,29.99,10.0,NNW,9.2,-,N/A,,Overcast,340,2012-12-11 18:04:00
1:54 PM,51.1,36.0,56,29.98,10.0,North,10.4,-,N/A,,Overcast,10,2012-12-11 18:54:00
2:54 PM,52.0,33.1,49,30.01,10.0,North,8.1,-,N/A,,Overcast,360,2012-12-11 19:54:00
3:54 PM,52.0,32.0,47,30.03,10.0,North,6.9,-,N/A,,Mostly Cloudy,360,2012-12-11 20:54:00
4:54 PM,50.0,33.1,52,30.06,10.0,North,3.5,-,N/A,,Overcast,360,2012-12-11 21:54:00
5:54 PM,48.0,34.0,58,30.09,10.0,NNW,4.6,-,N/A,,Mostly Cloudy,340,2012-12-11 22:54:00
6:54 PM,46.9,33.1,59,30.12,10.0,North,6.9,-,N/A,,Mostly Cloudy,350,2012-12-11 23:54:00
7:54 PM,46.0,33.1,61,30.13,10.0,North,5.8,-,N/A,,Mostly Cloudy,10,2012-12-12 00:54:00
8:54 PM,46.0,33.1,61,30.14,10.0,North,4.6,-,N/A,,Mostly Cloudy,360,2012-12-12 01:54:00
9:54 PM,45.0,33.1,63,30.17,10.0,North,4.6,-,N/A,,Mostly Cloudy,360,2012-12-12 02:54:00
10:54 PM,45.0,32.0,60,30.17,10.0,NNE,9.2,-,N/A,,Clear,20,2012-12-12 03:54:00
11:54 PM,44.1,30.0,58,30.19,10.0,NNE,9.2,-,N/A,,Partly Cloudy,20,2012-12-12 04:54:00